GW4215 Weather Reports


Display with metric or nautical units.
time (UTC)temp
F
wind
direction
speed
MPH
gust
MPH
rain 1hr
in
rain 24hr
in
rain mn
in
humidity
%
barometer
mb
20260504185506 67 222 5.0 12.0 0.00 0.00 0.00 45 1010.3
20260504185005 67 220 3.0 7.0 0.00 0.00 0.00 46 1010.4
20260504184504 66 230 5.0 14.0 0.00 0.00 0.00 47 1010.4
20260504184005 67 222 5.0 15.0 0.00 0.00 0.00 47 1010.5
20260504183505 66 245 7.0 15.0 0.00 0.00 0.00 44 1010.6
20260504182505 67 219 5.0 14.0 0.00 0.00 0.00 44 1010.7
20260504182005 67 227 3.0 15.0 0.00 0.00 0.00 49 1010.7
20260504181506 67 220 3.0 12.0 0.00 0.00 0.00 44 1010.8
20260504181004 67 234 5.0 10.0 0.00 0.00 0.00 44 1010.8
20260504180505 67 217 3.0 8.0 0.00 0.00 0.00 43 1010.9
20260504180005 67 226 7.0 17.0 0.00 0.00 0.00 40 1010.9
20260504175505 67 232 7.0 14.0 0.00 0.00 0.00 40 1011.0
20260504174505 67 239 6.0 13.0 0.00 0.00 0.00 40 1011.0
20260504174005 68 212 6.0 13.0 0.00 0.00 0.00 42 1011.2
20260504172504 67 231 7.0 21.0 0.00 0.00 0.00 40 1011.2
20260504172005 66 237 6.0 14.0 0.00 0.00 0.00 41 1011.1
20260504171504 66 238 9.0 17.0 0.00 0.00 0.00 38 1011.2
20260504171005 65 211 9.0 16.0 0.00 0.00 0.00 38 1011.2
20260504170505 66 232 9.0 20.0 0.00 0.00 0.00 38 1011.2
20260504151005 61 251 5.0 20.0 0.00 0.00 0.00 46 1012.5
20260504150505 61 255 5.0 20.0 0.00 0.00 0.00 45 1012.6
20260504141004 59 243 7.0 15.0 0.00 0.00 0.00 46 1013.0
20260504140504 59 223 5.0 15.0 0.00 0.00 0.00 48 1013.1
20260504130505 56 215 5.0 12.0 0.00 0.00 0.00 55 1013.5
20260504110505 42 262 1.0 3.0 0.00 0.00 0.00 87 1013.4
20260504100504 37 55 0.0 1.0 0.00 0.00 0.00 89 1013.2
20260504082004 37 55 0.0 1.0 0.00 0.00 0.00 87 1012.6
20260504081505 37 55 0.0 1.0 0.00 0.00 0.00 87 1012.6
20260504081004 37 55 0.0 1.0 0.00 0.00 0.00 87 1012.6
20260504080504 37 55 0.0 1.0 0.00 0.00 0.00 86 1012.6
20260504050504 39 61 1.0 1.0 0.00 0.00 0.00 82 1012.1
20260504045504 39 61 1.0 1.0 0.00 0.00 0.00 80 1012.1
20260504044505 39 61 1.0 2.0 0.00 0.00 0.00 78 1012.2
20260504044004 39 61 0.0 1.0 0.00 0.00 0.00 77 1012.2
20260504043504 39 61 0.0 0.0 0.00 0.00 0.00 78 1012.2
20260504043004 39 61 0.0 1.0 0.00 0.00 0.00 77 1012.1
20260504042504 39 61 0.0 0.0 0.00 0.00 0.00 78 1012.2
20260504042004 39 61 0.0 0.0 0.00 0.00 0.00 78 1012.0
20260504041504 39 61 0.0 1.0 0.00 0.00 0.00 77 1012.0
20260504041004 40 61 0.0 1.0 0.00 0.00 0.00 77 1011.9
20260504040505 40 61 0.0 1.0 0.00 0.00 0.00 77 1012.0
20260504040004 40 61 0.0 0.0 0.00 0.00 0.00 77 1012.0
20260504035504 40 61 0.0 0.0 0.00 0.00 0.00 76 1012.0
20260504035004 40 61 0.0 1.0 0.00 0.00 0.00 75 1011.9
20260504034005 40 61 0.0 1.0 0.00 0.00 0.00 75 1011.8
20260504033504 40 61 0.0 1.0 0.00 0.00 0.00 75 1011.8
20260504033005 41 61 0.0 1.0 0.00 0.00 0.00 74 1011.8
20260504032505 41 61 0.0 1.0 0.00 0.00 0.00 73 1011.8
20260504032004 41 61 0.0 1.0 0.00 0.00 0.00 72 1011.8
20260504031504 41 61 0.0 1.0 0.00 0.00 0.00 72 1011.9
20260504030504 41 24 1.0 2.0 0.00 0.00 0.00 72 1011.8
20260504030004 41 0 0.0 1.0 0.00 0.00 0.00 73 1011.8
20260504025505 41 0 0.0 1.0 0.00 0.00 0.00 73 1011.7
20260504025005 42 0 0.0 2.0 0.00 0.00 0.00 74 1011.8
20260504024504 42 293 0.0 1.0 0.00 0.00 0.00 73 1011.8
20260504023504 42 293 0.0 1.0 0.00 0.00 0.00 70 1011.9
20260504023004 43 293 0.0 1.0 0.00 0.00 0.00 69 1011.9
20260504022504 43 293 0.0 1.0 0.00 0.00 0.00 68 1011.8
20260504022004 43 293 0.0 1.0 0.00 0.00 0.00 70 1011.8
20260504021505 43 293 0.0 1.0 0.00 0.00 0.00 69 1011.9
20260504021004 43 293 0.0 0.0 0.00 0.00 0.00 70 1011.8
20260504020005 43 293 0.0 1.0 0.00 0.00 0.00 69 1011.7
20260504015504 44 293 0.0 1.0 0.00 0.00 0.00 68 1011.7
20260504015004 44 293 0.0 1.0 0.00 0.00 0.00 68 1011.7
20260504014504 44 293 0.0 1.0 0.00 0.00 0.00 66 1011.6
20260504014004 44 293 0.0 1.0 0.00 0.00 0.00 66 1011.6
20260504013504 45 293 0.0 1.0 0.00 0.00 0.00 66 1011.6
20260504013004 45 293 0.0 1.0 0.00 0.00 0.00 65 1011.5
20260504012504 45 293 0.0 0.0 0.00 0.00 0.00 65 1011.5
20260504010504 46 293 0.0 1.0 0.00 0.00 0.00 59 1011.2
20260504010004 46 293 0.0 1.0 0.00 0.00 0.00 59 1011.1
20260504005504 46 293 0.0 0.0 0.00 0.00 0.00 58 1011.1
20260504005005 47 293 0.0 1.0 0.00 0.00 0.00 55 1011.0
20260504004504 47 293 0.0 1.0 0.00 0.00 0.00 55 1011.0
20260504004004 47 293 0.0 0.0 0.00 0.00 0.00 53 1010.9
20260504003505 47 293 0.0 0.0 0.00 0.00 0.00 53 1010.8
20260504003004 48 293 0.0 1.0 0.00 0.00 0.00 50 1010.8
20260504002504 48 293 0.0 1.0 0.00 0.00 0.00 48 1010.7
20260504002004 48 293 0.0 1.0 0.00 0.00 0.00 47 1010.7
20260504001504 48 293 0.0 1.0 0.00 0.00 0.00 49 1010.6
20260504001004 49 293 0.0 1.0 0.00 0.00 0.00 46 1010.4
20260504000504 49 293 0.0 1.0 0.00 0.00 0.00 45 1010.4
20260504000004 50 293 0.0 1.0 0.00 0.00 0.00 46 1010.4
20260503235504 50 293 0.0 1.0 0.00 0.00 0.00 44 1010.2
20260503235004 51 293 0.0 1.0 0.00 0.00 0.00 42 1010.2
20260503234504 52 293 0.0 2.0 0.00 0.00 0.00 44 1010.2
20260503234005 53 293 0.0 2.0 0.00 0.00 0.00 43 1010.2
20260503233504 54 274 1.0 3.0 0.00 0.00 0.00 37 1010.1
20260503233004 54 342 1.0 3.0 0.00 0.00 0.00 36 1010.0
20260503232505 54 351 0.0 7.0 0.00 0.00 0.00 36 1010.0
20260503232004 54 307 2.0 7.0 0.00 0.00 0.00 36 1010.0
20260503231504 54 315 1.0 3.0 0.00 0.00 0.00 36 1010.0
20260503231004 55 258 1.0 6.0 0.00 0.00 0.00 37 1009.9
20260503230504 55 260 3.0 8.0 0.00 0.00 0.00 35 1009.9
20260503230004 55 247 3.0 6.0 0.00 0.00 0.00 33 1009.9
20260503225504 55 280 2.0 6.0 0.00 0.00 0.00 35 1009.9
20260503225004 55 281 1.0 7.0 0.00 0.00 0.00 34 1009.9
20260503224504 55 314 3.0 8.0 0.00 0.00 0.00 37 1009.9
20260503224004 55 320 3.0 9.0 0.00 0.00 0.00 33 1009.9
20260503223504 55 335 3.0 10.0 0.00 0.00 0.00 33 1009.8
20260503223005 55 340 3.0 10.0 0.00 0.00 0.00 35 1009.7
20260503222504 56 316 2.0 10.0 0.00 0.00 0.00 34 1009.6
20260503222004 56 328 3.0 9.0 0.00 0.00 0.00 34 1009.6
20260503221504 56 349 3.0 15.0 0.00 0.00 0.00 34 1009.6
20260503221004 56 9 4.0 15.0 0.00 0.00 0.00 34 1009.6
20260503220505 56 3 5.0 10.0 0.00 0.00 0.00 34 1009.7
20260503215504 56 288 4.0 12.0 0.00 0.00 0.00 35 1009.6
20260503215004 56 226 5.0 16.0 0.00 0.00 0.00 34 1009.6
20260503214504 56 274 7.0 14.0 0.00 0.00 0.00 33 1009.7
20260503213504 56 0 3.0 16.0 0.00 0.00 0.00 37 1009.6
20260503212004 56 347 7.0 18.0 0.00 0.00 0.00 35 1009.5
20260503211504 56 302 5.0 15.0 0.00 0.00 0.00 35 1009.6
20260503211005 56 354 9.0 18.0 0.00 0.00 0.00 35 1009.6
20260503210504 56 2 6.0 18.0 0.00 0.00 0.00 34 1009.5
20260503210004 56 0 3.0 9.0 0.00 0.00 0.00 38 1009.5
20260503205004 57 337 3.0 12.0 0.00 0.00 0.00 35 1009.4
20260503204504 57 28 6.0 15.0 0.00 0.00 0.00 36 1009.5
20260503204004 57 34 6.0 21.0 0.00 0.00 0.00 36 1009.4
20260503203504 56 30 5.0 17.0 0.00 0.00 0.00 36 1009.3
20260503203004 56 262 6.0 15.0 0.00 0.00 0.00 34 1009.4
20260503202004 56 285 6.0 15.0 0.00 0.00 0.00 36 1009.4
20260503201504 56 275 4.0 13.0 0.00 0.00 0.00 38 1009.4
20260503201004 57 281 6.0 13.0 0.00 0.00 0.00 35 1009.4
20260503200504 57 348 6.0 16.0 0.00 0.00 0.00 36 1009.3
20260503195504 57 342 5.0 12.0 0.00 0.00 0.00 34 1009.4
20260503195004 57 334 7.0 20.0 0.00 0.00 0.00 39 1009.4
20260503194504 57 352 7.0 17.0 0.00 0.00 0.00 38 1009.4
20260503194004 55 118 3.0 9.0 0.00 0.00 0.00 37 1009.2
20260503193505 54 11 4.0 15.0 0.00 0.00 0.00 37 1009.3
20260503193004 55 269 7.0 14.0 0.00 0.00 0.00 38 1009.3
20260503192504 55 291 5.0 15.0 0.00 0.00 0.00 38 1009.2
20260503192004 56 271 6.0 16.0 0.00 0.00 0.00 35 1009.2
20260503191503 58 271 7.0 13.0 0.00 0.00 0.00 34 1009.3
20260503190504 57 297 4.0 8.0 0.00 0.00 0.00 36 1009.1
20260503190004 58 303 6.0 12.0 0.00 0.00 0.00 36 1009.2